{"data":{"norad_id":62503,"intl_designator":"2025-003S","name":"STARLINK-32768","alt_names":[],"object_type":"PAYLOAD","status":"ACTIVE","operator":null,"country":"US","launch_date":"2025-01-06","launch_site_code":"AFETR","launch_vehicle":null,"mission":null,"orbit_class":"UNKNOWN","rcs_meters":null,"size_class":null,"mass_kg":null,"dimensions":null,"purposes":["comms"],"wikipedia_slug":null,"has_3d_model":false,"image_url":null,"decayed_at":null,"tle_current":{"epoch":"2026-05-25T04:22:12.066240Z","epoch_age_seconds":62537,"freshness":"FRESH","line1":"1 62503U 25003S   26145.18208410  .00012193  00000+0  45176-3 0  9999","line2":"2 62503  42.9985 216.6701 0001552 265.5701  94.4973 15.27588427 78254","mean_motion":15.27588427,"eccentricity":0.0001552,"inclination_deg":42.9985,"raan_deg":216.6701,"arg_perigee_deg":265.5701,"mean_anomaly_deg":94.4973,"bstar":0.00045176,"rev_number":7825,"period_min":94.266228687526,"perigee_km":481.95901052017,"apogee_km":484.08871485195,"semimajor_km":6861.1608626861,"source":"CELESTRAK","updated_at":"2026-05-25T13:38:19.699770Z"}}}